Вернуться в каталог

STARLINK-34578

АктивенСвязьSSO
NORAD 64856·PAYLOAD·🇺🇸 United States

Запущен Jul 19, 2025 с Vandenberg Space Force Base

Loading…

Ближайшие Пролёты (ближайшие 24 часа)

TLE

СвежийSource: CelesTrak SupGP

Эпоха: Sep 15, 2026, 03:42 UTC

1 64856C 25152Q   26258.15465278 -.00036821  00000+0 -11427-2 0  2581
2 64856  97.2848 108.8154 0001743  92.7678 345.9549 15.33465191    18

Отслеживайте STARLINK-34578 в реальном времени с AllMySat

Download on the App Store